Tracking 31027 objects as of 19-Jul-2025
HD Live streaming from Space Station
objects crossing your sky now

STARLINK-6094

Track STARLINK-6094 now!
10-day predictions
STARLINK-6094 is classified as:


NORAD ID: 56122
Int'l Code: 2023-046AF
Perigee: 565.1 km
Apogee: 567.3 km
Inclination: 43.0 °
Period: 95.8 minutes
Semi major axis: 6937 km
RCS: Unknown
Launch date: March 29, 2023
Source: United States (US)
Launch site: AIR FORCE EASTERN TEST RANGE (AFETR)
Your satellite tracking list
HAWK-4A
Track 1 satellite(s)




NASA's NSSDC Master Catalog

Two Line Element Set (TLE):
1 56122U 23046AF  25199.40220478  .00000351  00000-0  41032-4 0  9997
2 56122  43.0045 351.6069 0001587 278.4852  81.5810 15.02532780126826
Source of the keplerian elements: AFSPC